Flag Weather past 2 weeks in Kassala, Sudan

Now
97 °F

Sunny.


Feels Like: 92 °F
Forecast: 82 / 98 °F
Wind: 9 mph from North

Location: Khartoum Airport

Current Time: Oct 30, 2014 at 3:31:08 PM

Latest Report: Oct 30, 2014 at 3:00 PM


Visibility: 10 mi

Pressure: 29.83 "Hg

Humidity: 12%

Dew point: 36 °F

Location of KassalaLocation

Historic Weather in Kassala — Graph

°F

Kassala temperature yesterday

Maximum temperature yesterday: 99 °F (at 2:00 PM)
Minimum temperature yesterday: 86 °F (at 11:00 PM)
Average temperature yesterday: 93 °F

Past Weeks' High & Low Weather Summary

 TemperatureHumidityPressure
High102 °F (Oct 16, 2:00 PM)59% (Oct 23, 11:00 PM)29.98 "Hg (Oct 23, 11:00 PM)
Low75 °F (Oct 30, 6:00 AM)6% (Oct 16, 6:00 PM)29.71 "Hg (Oct 19, 4:30 PM)
Average90 °F19%29.85 "Hg
* Reported Oct 15 2:30 PM — Oct 30 2:30 PM, Kassala, Weather by CustomWeather, © 2014

Note: Actual official high and low records may vary slightly from our data, if they occured in-between our weather recording intervals... More about our weather records

Advertising

Kassala weather history for previous 24 hours

 ConditionsComfort  
Time TempWeatherWind HumidityBarometerVisibility
2:30 PM
Oct 30
N/ASunny.12 mphN/A29.86 "Hg10 mi
2:00 PM95 °FSunny.14 mph10%29.86 "Hg10 mi
1:30 PMN/ASunny.13 mphN/A29.86 "Hg10 mi
1:00 PM93 °FSunny.16 mph12%29.89 "Hg10 mi
12:30 PMN/ASunny.13 mphN/A29.89 "Hg10 mi
12:00 PM90 °FSunny.14 mph17%29.92 "Hg10 mi
11:30 AMN/ASunny.14 mphN/A29.92 "Hg10 mi
11:00 AM88 °FSunny.14 mph19%29.95 "Hg10 mi
10:30 AMN/ASunny.14 mphN/A29.95 "Hg10 mi
10:00 AM82 °FSunny.12 mph19%29.95 "Hg10 mi
9:30 AMN/ASunny.14 mphN/A29.95 "Hg10 mi
9:00 AM77 °FSunny.14 mph24%29.95 "Hg10 mi
8:30 AMN/ASunny.14 mphN/A29.95 "Hg10 mi
8:00 AM75 °FSunny.13 mph22%29.92 "Hg10 mi
7:30 AMN/ASunny.13 mphN/A29.92 "Hg10 mi
7:00 AM75 °FSunny.12 mph22%29.89 "Hg10 mi
6:30 AMN/AClear.12 mphN/A29.89 "Hg10 mi
6:00 AM75 °FClear.14 mph22%29.89 "Hg10 mi
5:30 AMN/AClear.12 mphN/A29.86 "Hg10 mi
5:00 AM77 °FClear.12 mph18%29.86 "Hg10 mi
4:30 AMN/AClear.9 mphN/A29.86 "Hg10 mi
4:00 AM79 °FClear.10 mph15%29.86 "Hg10 mi
3:00 AM81 °FClear.10 mph12%29.86 "Hg10 mi
2:30 AMN/AClear.13 mphN/A29.86 "Hg10 mi
2:00 AM82 °FClear.13 mph14%29.86 "Hg10 mi
1:30 AMN/AClear.13 mphN/A29.86 "Hg10 mi
1:00 AM84 °FClear.15 mph11%29.86 "Hg10 mi
12:30 AMN/AClear.15 mphN/A29.86 "Hg10 mi
11:30 PM
Oct 29
N/AClear.12 mphN/A29.86 "Hg10 mi
11:00 PM86 °FClear.13 mph13%29.86 "Hg10 mi
10:30 PMN/AClear.12 mphN/A29.86 "Hg10 mi
10:00 PM88 °FClear.12 mph13%29.86 "Hg10 mi
9:30 PMN/AClear.7 mphN/A29.86 "Hg10 mi
9:00 PM88 °FClear.5 mph15%29.86 "Hg10 mi
8:30 PMN/AClear.9 mphN/A29.83 "Hg10 mi
8:00 PM91 °FClear.5 mph10%29.83 "Hg10 mi
7:30 PMN/AClear.5 mphN/A29.83 "Hg10 mi
7:00 PM93 °FClear.5 mph12%29.80 "Hg10 mi
6:30 PMN/AClear.5 mphN/A29.80 "Hg10 mi
6:00 PM95 °FSunny.7 mph10%29.80 "Hg10 mi
4:30 PMN/ASunny.7 mphN/A29.80 "Hg10 mi
4:00 PM99 °FSunny.12 mph10%29.80 "Hg10 mi
3:30 PMN/ASunny.12 mphN/A29.80 "Hg10 mi
3:00 PM97 °FSunny.12 mph12%29.80 "Hg10 mi
Weather by CustomWeather, © 2014

See weather overviewHow to use our weather pages